Wind_Speed
6 3 10 9 7 9 11 14 14 12 13 17 17 21 24 21 21 19 15 15 16 19 21 23 26 24 22 17 16 18 20 20 23 23 24 25 27 33 35 34 37 36 37 43
4 6 9 8 10 12 14 17 11 10 13 22 21 30 27 24 21 16 13 11 12 14 17 19 22 25 28 19 14 14 12 19 20 21 23 26 27 30 36 36 35 39 38 42
4 10 6 11 11 13 15 11 13 16 24 23 17 18 7 7 11 13 12 9 10 12 14 15 18 22 27 23 14 14 12 11 13 18 27 26 27 28 32 35 34 36 39 43
6 10 6 14 10 18 12 16 19 23 17 10 14 9 14 15 13 11 11 9 11 12 14 14 16 18 23 22 13 14 6 4 1 14 16 28 21 24 28 31 33 33 38 36
9 8 5 13 11 18 13 19 22 22 13 11 5 5 8 14 11 11 12 10 11 12 13 12 13 15 18 19 18 12 11 6 9 7 20 16 19 18 20 24 26 20 34 27
10 6 4 12 12 15 20 22 17 11 7 3 2 3 7 8 9 10 11 12 11 12 11 11 11 14 15 15 16 18 15 10 7 13 9 12 15 19 20 21 20 25 27 27
10 5 6 8 15 13 16 17 5 2 2 3 6 10 9 15 13 13 13 14 11 11 11 12 10 12 14 13 12 13 14 14 13 6 6 6 7 13 19 7 24 27 15 27
11 4 9 10 13 13 11 11 5 5 5 11 14 6 7 19 19 15 13 12 12 11 10 11 11 11 11 11 11 12 11 9 8 7 12 12 3 3 4 6 3 8 20 35
9 5 11 7 13 13 9 5 8 5 8 5 6 9 20 6 15 13 12 13 13 13 11 11 11 12 13 12 11 10 9 9 8 7 8 6 9 13 15 16 13 12 7 3
11 11 5 7 17 9 7 10 4 4 5 6 8 12 12 15 13 11 11 17 18 16 14 12 12 10 16 15 12 13 12 10 9 7 5 6 6 8 9 8 11 11 10 7
15 6 10 17 9 14 10 6 4 5 5 4 6 11 14 14 12 11 14 26 22 20 16 15 14 16 15 18 17 14 13 13 11 10 9 8 11 13 15 19 18 17 16 14
11 11 14 23 12 7 7 8 9 5 3 8 9 18 8 9 12 23 33 29 26 18 19 20 22 24 27 24 21 18 17 13 12 13 14 14 15 18 21 20 22 24 22 21
20 7 11 7 2 6 11 11 13 16 17 15 11 13 22 25 37 37 32 28 24 25 28 31 31 34 28 28 27 23 18 17 17 17 18 19 22 24 24 25 25 25 26 27
16 14 11 15 20 23 30 24 22 20 19 23 37 39 32 36 32 33 29 27 25 24 26 29 33 33 26 27 27 25 22 20 20 21 22 23 27 29 31 31 28 26 26 26
15 21 22 25 27 26 22 24 21 26 29 24 38 30 31 27 26 25 26 25 24 23 25 26 29 29 24 23 22 22 21 21 23 24 24 27 30 33 35 35 33 31 29 28
25 20 30 35 25 13 30 24 10 18 21 29 30 34 25 28 30 29 28 25 25 26 26 26 26 22 23 22 23 23 22 22 24 24 26 29 32 35 36 36 34 32 32 32
30 27 19 15 17 22 18 10 23 25 20 24 27 29 28 24 28 28 23 23 26 25 26 26 25 25 24 26 25 24 24 25 26 27 30 34 37 38 38 37 35 34 33 33
29 27 21 18 21 5 16 34 25 20 22 25 31 24 15 28 26 23 26 31 27 27 25 25 25 25 27 26 26 25 26 28 28 30 34 37 39 39 38 37 36 35 34 33
20 22 13 8 10 29 25 14 22 24 31 28 12 20 29 35 30 30 29 30 26 26 25 24 24 25 27 28 28 29 29 29 31 33 36 37 38 37 37 36 36 35 34 34
20 18 20 18 9 8 23 28 29 25 31 14 26 38 39 37 39 32 29 29 29 25 26 25 26 27 28 28 29 29 29 31 33 35 37 38 39 38 37 37 36 36 35 34
18 15 22 26 16 21 22 23 22 14 26 30 46 42 41 38 37 36 35 33 32 29 28 28 26 25 27 28 27 28 31 33 35 36 37 37 38 37 37 37 37 36 37 36
21 14 21 15 11 15 15 25 27 34 50 49 52 42 41 39 38 38 36 32 31 27 23 23 24 25 25 26 28 31 33 33 34 34 35 35 35 36 35 36 36 36 37 37
26 31 22 21 27 36 40 41 43 45 43 43 43 40 42 40 40 37 32 28 26 24 22 22 23 24 27 28 31 32 32 32 32 32 33 33 33 35 36 37 38 39 40 42
33 23 37 39 46 29 48 44 41 38 47 44 40 43 41 40 37 32 27 24 23 22 21 22 23 25 29 30 30 30 32 31 31 31 32 35 36 37 39 41 42 42 42 41
35 50 46 53 47 46 47 43 43 48 49 46 47 42 38 34 28 24 22 20 20 20 20 22 24 26 27 27 29 30 30 31 32 34 36 37 39 40 40 40 39 39 39 39
46 39 32 45 45 43 43 50 50 46 47 44 41 35 30 26 22 19 17 17 17 19 21 23 24 24 25 26 28 30 32 34 36 37 38 38 38 37 38 38 36 34 34 35
Wind_Direction
351 25 355 356 355 338 335 332 314 316 304 295 301 297 294 289 287 293 299 316 332 349 359 5 5 354 341 292 287 282 259 246 240 246 246 240 239 234 231 230 231 231 231 226
8 359 358 360 344 340 336 330 322 326 314 309 306 302 285 279 279 273 276 298 329 347 354 4 7 3 2 342 298 294 278 249 244 245 241 241 239 238 232 230 233 230 231 228
5 347 1 357 346 344 337 335 326 319 317 313 316 308 291 275 272 256 260 290 318 337 348 358 8 2 4 355 341 349 265 266 253 254 241 242 237 236 229 233 236 235 232 229
348 343 349 354 355 349 350 336 323 317 320 315 311 298 303 293 282 254 259 288 311 328 335 347 1 6 10 9 5 11 31 326 196 233 253 232 238 237 237 235 237 238 239 237
346 343 329 348 345 351 339 336 322 314 309 309 306 278 290 309 304 272 264 284 304 315 326 338 354 1 8 17 20 6 16 32 267 214 236 234 230 234 237 236 243 256 236 250
346 345 334 340 342 352 344 342 328 323 328 265 303 343 300 324 324 305 275 280 291 300 317 327 348 359 0 7 13 21 32 49 58 159 190 142 187 215 205 202 211 205 230 233
356 339 335 338 342 341 351 359 332 297 307 308 297 306 269 308 313 305 285 279 285 298 312 318 345 352 350 354 356 7 16 29 40 65 74 122 150 189 237 157 200 215 198 192
348 333 335 328 337 332 348 11 22 321 326 303 299 250 281 311 308 305 295 275 281 290 306 311 327 342 341 342 343 342 352 359 27 359 354 8 21 86 145 196 169 215 234 226
340 301 314 312 333 332 327 349 322 270 275 275 268 290 309 329 324 313 301 293 289 286 298 307 308 322 330 331 330 326 323 322 335 337 338 7 3 13 5 352 346 359 3 317
328 302 302 314 318 319 309 314 326 331 308 300 283 295 268 312 312 321 323 316 298 283 283 295 297 306 311 318 315 312 313 312 305 306 322 340 352 351 341 321 323 311 311 291
327 298 297 315 301 300 302 294 224 284 259 290 311 293 295 304 318 336 334 325 314 275 268 281 294 294 289 298 302 298 295 302 303 304 309 317 327 327 322 319 312 296 287 273
326 299 286 314 293 286 288 266 247 271 277 258 279 277 298 301 312 313 315 314 304 294 273 277 286 292 293 275 276 286 291 290 287 286 285 290 303 311 315 312 307 306 302 295
316 294 309 316 280 302 311 295 286 280 274 266 264 268 310 300 307 313 311 305 291 274 277 283 286 290 290 271 271 280 275 283 289 289 282 281 296 307 309 309 307 303 301 299
302 277 267 274 290 296 293 286 281 269 270 265 254 276 308 299 301 308 306 302 289 279 276 277 284 288 288 276 278 278 272 268 275 281 283 287 300 308 313 313 309 303 297 291
300 281 293 295 293 297 295 297 288 268 278 257 297 280 308 314 303 306 301 297 290 287 283 279 282 288 283 282 276 278 276 278 285 286 285 296 306 310 312 311 310 307 305 301
298 293 301 301 310 298 305 304 295 294 288 272 292 293 315 308 308 302 303 301 294 290 285 281 279 279 281 279 272 278 281 282 283 282 287 297 302 306 307 306 306 305 304 303
283 285 294 292 300 310 298 316 304 302 296 295 293 304 308 310 304 300 299 305 303 294 286 279 272 268 267 267 273 277 280 282 283 284 292 298 301 304 304 304 303 302 301 300
269 273 276 278 301 242 306 306 306 298 310 313 307 307 293 313 296 292 295 297 297 294 287 278 270 264 263 266 270 275 280 283 283 288 295 300 303 304 304 303 303 302 301 299
259 258 257 257 262 289 308 308 307 300 305 317 328 310 301 315 309 284 301 298 289 288 283 276 269 265 266 269 275 280 282 282 286 291 296 299 301 302 303 304 304 303 302 300
257 253 242 251 258 273 297 303 306 300 310 306 313 314 319 315 311 302 294 299 292 282 277 270 266 268 268 273 278 279 280 285 291 297 299 300 300 301 301 300 299 298 296 296
244 246 247 253 252 280 281 302 300 292 305 305 310 315 316 313 309 304 297 302 290 280 279 274 275 276 276 279 281 284 287 291 295 297 297 297 298 299 299 299 299 298 297 295
263 276 270 248 236 277 306 312 301 295 304 307 307 308 308 310 307 302 295 295 291 285 281 275 274 276 278 280 283 287 291 295 296 296 296 297 297 297 297 296 294 294 294 294
263 278 252 275 276 280 285 301 297 302 303 308 302 301 307 303 299 297 292 289 282 278 276 276 276 278 281 284 288 292 295 296 297 298 298 297 298 299 298 298 298 298 298 297
278 261 287 290 300 290 293 304 306 305 310 302 301 307 303 299 295 292 289 283 278 275 275 277 280 282 285 289 295 296 296 298 298 298 298 298 299 298 298 298 298 298 297 296
273 292 292 289 302 298 302 298 302 306 307 304 306 306 301 296 291 287 283 279 277 277 279 282 285 287 296 301 298 297 299 300 300 301 300 300 300 300 299 299 299 299 299 298
291 296 286 296 298 295 301 300 307 308 305 304 305 302 296 291 288 285 282 280 280 283 286 287 296 303 300 300 299 301 303 303 303 303 303 303 303 303 303 302 300 301 302 300
Height
3148 3148 3146 3144 3142 3141 3139 3136 3134 3132 3130 3127 3125 3122 3117 3115 3113 3112 3112 3111 3107 3101 3096 3092 3086 3083 3079 3076 3074 3071 3071 3072 3073 3074 3076 3078 3078 3080 3081 3083 3086 3089 3092 3093
3150 3148 3146 3144 3142 3140 3138 3135 3133 3130 3129 3126 3121 3114 3111 3109 3109 3108 3108 3107 3105 3101 3097 3093 3089 3084 3078 3073 3069 3067 3065 3067 3068 3069 3070 3072 3073 3074 3074 3077 3079 3081 3084 3086
3149 3149 3146 3144 3142 3140 3138 3135 3133 3132 3126 3122 3118 3110 3107 3107 3106 3106 3106 3105 3103 3100 3097 3094 3090 3085 3078 3073 3068 3065 3062 3062 3063 3064 3064 3066 3067 3068 3068 3071 3073 3075 3077 3078
3151 3149 3147 3145 3143 3141 3137 3135 3132 3128 3125 3124 3120 3114 3107 3105 3105 3104 3105 3104 3102 3100 3097 3094 3090 3086 3080 3075 3070 3066 3063 3062 3062 3062 3061 3061 3062 3064 3065 3066 3068 3070 3071 3072
3152 3148 3146 3145 3143 3141 3140 3133 3128 3125 3122 3122 3119 3118 3106 3104 3103 3103 3102 3101 3099 3098 3096 3094 3091 3086 3082 3077 3073 3069 3066 3063 3061 3059 3058 3057 3059 3060 3061 3062 3062 3063 3065 3067
3149 3147 3146 3144 3142 3140 3136 3131 3125 3122 3121 3120 3118 3118 3106 3104 3102 3101 3100 3099 3098 3096 3093 3092 3089 3086 3082 3079 3075 3072 3068 3066 3064 3058 3057 3054 3057 3054 3057 3058 3060 3058 3058 3061
3148 3147 3146 3144 3141 3138 3135 3131 3127 3123 3120 3116 3114 3114 3104 3102 3101 3099 3098 3096 3095 3094 3091 3089 3086 3085 3082 3079 3077 3073 3070 3069 3066 3063 3061 3059 3057 3055 3055 3050 3052 3056 3053 3055
3147 3146 3145 3142 3141 3139 3136 3135 3135 3132 3125 3119 3114 3109 3104 3101 3098 3097 3095 3093 3093 3092 3090 3087 3084 3082 3081 3078 3076 3073 3071 3068 3066 3064 3062 3059 3058 3056 3054 3051 3050 3050 3047 3053
3149 3145 3143 3141 3139 3138 3135 3135 3134 3131 3128 3126 3111 3106 3101 3098 3097 3095 3093 3093 3092 3090 3088 3086 3083 3080 3079 3076 3074 3073 3071 3068 3065 3064 3062 3059 3057 3053 3053 3054 3051 3048 3047 3047
3150 3144 3140 3140 3138 3135 3134 3134 3134 3132 3126 3118 3109 3105 3100 3097 3095 3095 3093 3092 3090 3088 3086 3084 3081 3078 3077 3075 3072 3070 3069 3067 3065 3063 3061 3059 3057 3055 3054 3055 3053 3051 3048 3047
3148 3147 3143 3138 3136 3133 3132 3130 3130 3131 3128 3123 3113 3100 3096 3095 3093 3091 3091 3089 3085 3083 3082 3081 3079 3076 3074 3073 3069 3067 3065 3063 3061 3060 3058 3056 3055 3053 3053 3049 3050 3051 3049 3047
3148 3145 3140 3136 3132 3130 3130 3128 3129 3129 3127 3125 3123 3100 3093 3092 3091 3089 3086 3083 3081 3080 3078 3075 3074 3072 3071 3068 3065 3063 3060 3059 3058 3057 3056 3055 3053 3051 3049 3048 3046 3042 3040 3039
3146 3142 3139 3133 3134 3130 3128 3127 3127 3126 3124 3121 3119 3097 3088 3087 3086 3082 3078 3075 3072 3071 3069 3068 3066 3064 3063 3061 3060 3058 3056 3055 3054 3053 3052 3050 3048 3047 3046 3044 3040 3038 3034 3030
3141 3139 3140 3138 3134 3132 3123 3122 3121 3120 3116 3110 3098 3090 3087 3087 3083 3078 3071 3068 3065 3063 3062 3060 3058 3057 3055 3054 3054 3052 3050 3049 3048 3047 3045 3044 3042 3039 3037 3034 3033 3032 3029 3026
3138 3133 3130 3126 3124 3121 3114 3109 3109 3108 3102 3104 3086 3087 3079 3079 3074 3070 3067 3063 3059 3056 3055 3053 3051 3049 3048 3047 3047 3046 3044 3043 3042 3040 3038 3036 3033 3031 3028 3025 3022 3019 3017 3016
3132 3127 3124 3116 3115 3114 3107 3102 3100 3098 3094 3088 3082 3075 3077 3073 3070 3065 3061 3057 3053 3051 3048 3046 3045 3043 3042 3041 3040 3039 3038 3036 3034 3033 3031 3030 3027 3024 3021 3018 3014 3011 3008 3005
3126 3123 3121 3113 3110 3108 3101 3097 3095 3091 3089 3085 3080 3076 3070 3067 3063 3060 3056 3052 3048 3044 3041 3039 3037 3036 3035 3034 3032 3031 3030 3029 3028 3027 3025 3023 3020 3016 3013 3010 3006 3003 3000 2997
3120 3119 3119 3110 3106 3102 3094 3089 3085 3082 3080 3076 3070 3067 3064 3061 3057 3053 3050 3046 3042 3038 3035 3032 3030 3029 3028 3026 3025 3024 3023 3022 3021 3019 3017 3014 3010 3007 3003 3000 2997 2994 2991 2988
3115 3113 3113 3109 3101 3089 3084 3081 3080 3074 3069 3068 3064 3063 3058 3054 3049 3046 3042 3038 3034 3031 3028 3026 3024 3022 3021 3020 3018 3017 3016 3015 3013 3011 3008 3005 3001 2997 2993 2990 2986 2983 2980 2978
3109 3106 3107 3103 3098 3086 3076 3074 3071 3067 3063 3061 3058 3054 3049 3045 3040 3037 3033 3029 3026 3023 3020 3018 3016 3015 3015 3014 3013 3011 3009 3007 3005 3002 2999 2995 2992 2988 2985 2982 2979 2976 2973 2970
3102 3098 3097 3094 3091 3078 3074 3071 3067 3066 3062 3054 3051 3046 3041 3037 3033 3028 3024 3021 3018 3015 3013 3011 3010 3010 3009 3007 3005 3004 3001 2999 2996 2994 2990 2986 2982 2979 2976 2973 2969 2966 2963 2961
3096 3094 3091 3087 3085 3077 3072 3067 3067 3061 3052 3047 3042 3038 3033 3028 3023 3018 3015 3012 3010 3008 3006 3005 3003 3002 3001 3000 2998 2995 2993 2990 2988 2985 2981 2977 2974 2970 2968 2964 2962 2959 2955 2951
3089 3088 3083 3082 3071 3068 3063 3058 3055 3049 3045 3039 3033 3028 3024 3018 3014 3009 3006 3004 3002 3001 3000 2998 2997 2996 2994 2993 2990 2987 2984 2983 2980 2976 2972 2969 2965 2962 2958 2954 2950 2947 2943 2939
3075 3075 3069 3066 3059 3059 3055 3049 3044 3039 3034 3028 3023 3018 3014 3009 3004 3001 2998 2996 2995 2994 2993 2992 2991 2989 2987 2986 2982 2980 2977 2975 2972 2968 2964 2960 2957 2953 2948 2943 2939 2936 2932 2927
3069 3065 3059 3051 3049 3048 3042 3037 3033 3029 3024 3018 3013 3008 3004 2999 2996 2993 2991 2990 2989 2989 2988 2986 2985 2982 2980 2977 2974 2971 2969 2966 2963 2959 2955 2951 2946 2942 2938 2933 2928 2924 2920 2916
3058 3056 3050 3043 3042 3037 3033 3028 3022 3017 3012 3008 3003 2999 2995 2992 2990 2987 2986 2985 2984 2983 2982 2980 2977 2975 2973 2970 2966 2964 2960 2957 2953 2949 2944 2940 2935 2931 2926 2922 2919 2915 2909 2905